KLM78B EPKK-EHAM

Flight info

Callsign KLM78B
Flight time 1h 34m
Altitude 38000
Route OMFOL T738 EKSEK DCT NAROX DCT ZUCKA DCT NORKU
Aircraft B738/M-SDE2E3FGHIRWXY/LB1

Departure

Time 2026-05-04 06:50
Airport Kraków John Paul II International Airport (EPKK)

Arrival

Time 2026-05-04 08:25
Airport Amsterdam Airport Schiphol (EHAM)
Time Latitude Longitude Altitude Speed Heading
2026-05-04 06:21 50.07333 19.80203 789 ft 0 kts 226°
2026-05-04 06:42 50.07339 19.80213 789 ft 3 kts 222°
2026-05-04 06:42 50.07355 19.80233 789 ft 3 kts 205°
2026-05-04 06:44 50.07410 19.80163 789 ft 0 kts 78°
2026-05-04 06:46 50.07411 19.80167 789 ft 2 kts 78°
2026-05-04 06:46 50.07415 19.80197 789 ft 4 kts 78°
2026-05-04 06:48 50.07850 19.80328 788 ft 16 kts 348°
2026-05-04 06:48 50.07959 19.80292 787 ft 13 kts 347°
2026-05-04 06:49 50.08008 19.80224 788 ft 9 kts 276°
2026-05-04 06:50 50.07067 19.73499 2091 ft 173 kts 257°
2026-05-04 06:51 50.06808 19.71627 2738 ft 181 kts 258°
2026-05-04 06:51 50.06531 19.69622 3245 ft 197 kts 258°
2026-05-04 06:51 50.06230 19.67452 3826 ft 213 kts 258°
2026-05-04 06:51 50.05901 19.65101 4422 ft 232 kts 258°
2026-05-04 06:52 50.05666 19.63435 4932 ft 243 kts 258°
2026-05-04 06:52 50.05291 19.60776 5657 ft 260 kts 257°
2026-05-04 06:52 50.04894 19.57963 6499 ft 270 kts 257°
2026-05-04 06:52 50.04349 19.54128 7741 ft 278 kts 256°
2026-05-04 06:53 50.04064 19.52128 8356 ft 282 kts 256°
2026-05-04 06:53 50.03637 19.49124 9284 ft 286 kts 256°
2026-05-04 06:53 50.03204 19.46078 10223 ft 290 kts 256°
2026-05-04 06:53 50.02898 19.42882 10795 ft 309 kts 268°
2026-05-04 06:54 50.03169 19.39514 11325 ft 328 kts 284°
2026-05-04 06:54 50.04006 19.36118 11846 ft 345 kts 292°
2026-05-04 06:54 50.04994 19.32668 12593 ft 352 kts 293°
2026-05-04 06:54 50.05996 19.29162 13439 ft 357 kts 293°
2026-05-04 06:55 50.06995 19.25594 14313 ft 361 kts 292°
2026-05-04 06:55 50.07990 19.21976 15180 ft 365 kts 292°
2026-05-04 06:55 50.08990 19.18327 16034 ft 369 kts 292°
2026-05-04 06:55 50.10004 19.14636 16867 ft 372 kts 292°
2026-05-04 06:56 50.11034 19.10910 17680 ft 376 kts 292°
2026-05-04 06:57 50.18492 18.83689 22592 ft 404 kts 292°
2026-05-04 06:58 50.19596 18.79639 23194 ft 407 kts 292°
2026-05-04 06:58 50.20707 18.75550 23772 ft 411 kts 292°
2026-05-04 06:58 50.21823 18.71425 24323 ft 414 kts 292°
2026-05-04 06:58 50.22932 18.67325 24889 ft 417 kts 292°
2026-05-04 06:59 50.24058 18.63137 25417 ft 420 kts 292°
2026-05-04 06:59 50.25170 18.58908 25899 ft 423 kts 292°
2026-05-04 06:59 50.26277 18.54635 26373 ft 426 kts 292°
2026-05-04 06:59 50.27391 18.50331 26828 ft 429 kts 292°
2026-05-04 07:01 50.35455 18.19461 29517 ft 446 kts 292°
2026-05-04 07:01 50.36626 18.14943 29845 ft 448 kts 292°
2026-05-04 07:02 50.37801 18.10402 30158 ft 451 kts 292°
2026-05-04 07:02 50.38981 18.05837 30470 ft 453 kts 292°
2026-05-04 07:02 50.40164 18.01249 30803 ft 454 kts 292°
2026-05-04 07:02 50.41343 17.96667 31286 ft 451 kts 292°
2026-05-04 07:03 50.42512 17.92111 31713 ft 450 kts 292°
2026-05-04 07:03 50.43676 17.87564 32132 ft 449 kts 292°
2026-05-04 07:03 50.44835 17.83030 32516 ft 448 kts 292°
2026-05-04 07:03 50.46024 17.78506 32906 ft 447 kts 294°
2026-05-04 07:04 50.47300 17.74072 33284 ft 446 kts 295°
2026-05-04 07:04 50.48616 17.69724 33649 ft 445 kts 295°
2026-05-04 07:04 50.49934 17.65329 34009 ft 445 kts 295°
2026-05-04 07:04 50.51209 17.60917 34369 ft 444 kts 294°
2026-05-04 07:05 50.52455 17.56486 34710 ft 443 kts 294°
2026-05-04 07:05 50.53699 17.52051 35054 ft 442 kts 294°
2026-05-04 07:05 50.54952 17.47641 35402 ft 441 kts 294°
2026-05-04 07:05 50.56212 17.43247 35736 ft 441 kts 294°
2026-05-04 07:06 50.58720 17.34470 36379 ft 439 kts 294°
2026-05-04 07:06 50.59961 17.30081 36673 ft 439 kts 294°
2026-05-04 07:06 50.61197 17.25697 37002 ft 437 kts 294°
2026-05-04 07:07 50.62423 17.21345 37405 ft 433 kts 294°
2026-05-04 07:08 50.71068 16.90464 38015 ft 445 kts 293°
2026-05-04 07:09 50.72266 16.86050 38013 ft 443 kts 292°
2026-05-04 07:09 50.74655 16.77108 38015 ft 440 kts 292°
2026-05-04 07:10 50.77046 16.68229 38015 ft 439 kts 292°
2026-05-04 07:12 50.86549 16.32572 38016 ft 440 kts 292°
2026-05-04 07:12 50.88908 16.23632 38014 ft 440 kts 292°
2026-05-04 07:13 50.91254 16.14693 38018 ft 439 kts 292°
2026-05-04 07:13 50.93960 16.06008 38031 ft 440 kts 302°
2026-05-04 07:14 51.02485 15.85817 38015 ft 442 kts 302°
2026-05-04 07:15 51.05889 15.77694 38016 ft 441 kts 302°
2026-05-04 07:15 51.09270 15.69615 38017 ft 441 kts 302°
2026-05-04 07:16 51.12442 15.61282 38016 ft 439 kts 291°
2026-05-04 07:16 51.14023 15.51931 38016 ft 439 kts 281°
2026-05-04 07:17 51.15205 15.42378 38009 ft 439 kts 280°
2026-05-04 07:17 51.16383 15.32836 38005 ft 438 kts 280°
2026-05-04 07:18 51.17580 15.23310 38007 ft 438 kts 280°
2026-05-04 07:18 51.18754 15.13779 38011 ft 438 kts 280°
2026-05-04 07:19 51.19907 15.04308 38017 ft 438 kts 280°
2026-05-04 07:19 51.21109 14.94773 38014 ft 438 kts 281°
2026-05-04 07:20 51.22403 14.85280 38017 ft 438 kts 281°
2026-05-04 07:20 51.23656 14.75761 38007 ft 438 kts 280°
2026-05-04 07:22 51.28565 14.37663 38004 ft 438 kts 280°
2026-05-04 07:23 51.29773 14.28145 38004 ft 438 kts 280°
2026-05-04 07:23 51.30976 14.18603 38005 ft 437 kts 280°
2026-05-04 07:24 51.32162 14.09125 38004 ft 438 kts 280°
2026-05-04 07:24 51.33348 13.99587 38004 ft 438 kts 279°
2026-05-04 07:26 51.38006 13.61428 38014 ft 437 kts 279°
2026-05-04 07:27 51.39151 13.51875 38015 ft 437 kts 279°
2026-05-04 07:27 51.40289 13.42323 38016 ft 437 kts 279°
2026-05-04 07:28 51.41418 13.32762 38013 ft 437 kts 279°
2026-05-04 07:28 51.42540 13.23198 38014 ft 436 kts 279°
2026-05-04 07:29 51.43652 13.13641 38016 ft 436 kts 279°
2026-05-04 07:29 51.44758 13.04070 38016 ft 437 kts 279°
2026-05-04 07:30 51.45849 12.94556 38015 ft 436 kts 279°
2026-05-04 07:30 51.46937 12.84993 38018 ft 436 kts 278°
2026-05-04 07:31 51.48019 12.75419 38014 ft 436 kts 278°
2026-05-04 07:33 51.52263 12.37101 38011 ft 435 kts 278°
2026-05-04 07:33 51.53302 12.27529 38014 ft 435 kts 278°
2026-05-04 07:34 51.54335 12.17952 38013 ft 435 kts 278°
2026-05-04 07:34 51.55359 12.08371 38005 ft 435 kts 278°
2026-05-04 07:35 51.56367 11.98855 38008 ft 435 kts 278°
2026-05-04 07:35 51.57377 11.89257 38017 ft 435 kts 277°
2026-05-04 07:36 51.58379 11.79660 38023 ft 435 kts 277°
2026-05-04 07:38 51.62304 11.41225 38015 ft 436 kts 277°
2026-05-04 07:38 51.63267 11.31592 38015 ft 436 kts 277°
2026-05-04 07:39 51.64222 11.21963 38014 ft 436 kts 277°
2026-05-04 07:39 51.65170 11.12325 38017 ft 436 kts 277°
2026-05-04 07:40 51.66104 11.02729 38018 ft 436 kts 277°
2026-05-04 07:40 51.67033 10.93079 38016 ft 436 kts 277°
2026-05-04 07:41 51.68328 10.83507 38015 ft 438 kts 282°
2026-05-04 07:41 51.69808 10.73968 38013 ft 438 kts 282°
2026-05-04 07:42 51.71287 10.64442 38015 ft 438 kts 282°
2026-05-04 07:42 51.72756 10.54888 38017 ft 438 kts 282°
2026-05-04 07:43 51.74207 10.45385 38024 ft 439 kts 282°
2026-05-04 07:43 51.75664 10.35811 38016 ft 439 kts 281°
2026-05-04 07:44 51.77111 10.26232 38023 ft 439 kts 281°
2026-05-04 07:44 51.78550 10.16640 38020 ft 440 kts 281°
2026-05-04 07:45 51.79752 10.08605 38019 ft 439 kts 281°
2026-05-04 07:45 51.81180 9.98995 38026 ft 440 kts 281°
2026-05-04 07:46 51.82588 9.89444 38024 ft 440 kts 281°
2026-05-04 07:46 51.84000 9.79812 38025 ft 440 kts 281°
2026-05-04 07:47 51.85404 9.70193 38019 ft 439 kts 281°
2026-05-04 07:49 51.90939 9.31624 38020 ft 439 kts 281°
2026-05-04 07:49 51.92302 9.21970 38020 ft 439 kts 281°
2026-05-04 07:50 51.93649 9.12375 38018 ft 439 kts 281°
2026-05-04 07:50 51.94999 9.02703 38021 ft 440 kts 281°
2026-05-04 07:51 51.96339 8.93026 38017 ft 439 kts 280°
2026-05-04 07:51 51.97671 8.83349 38022 ft 440 kts 280°
2026-05-04 07:52 51.98997 8.73646 38016 ft 440 kts 280°
2026-05-04 07:52 52.00316 8.63945 38014 ft 440 kts 280°
2026-05-04 07:54 52.05517 8.24998 37153 ft 441 kts 280°
2026-05-04 07:55 52.06154 8.20181 36596 ft 433 kts 280°
2026-05-04 07:55 52.06781 8.15417 35921 ft 429 kts 279°
2026-05-04 07:55 52.07399 8.10680 35021 ft 430 kts 279°
2026-05-04 07:55 52.08019 8.05896 34018 ft 433 kts 279°
2026-05-04 07:56 52.08641 8.01094 33164 ft 433 kts 279°
2026-05-04 07:56 52.09257 7.96345 32478 ft 427 kts 279°
2026-05-04 07:56 52.09863 7.91660 31821 ft 421 kts 279°
2026-05-04 07:56 52.10459 7.87035 31173 ft 414 kts 279°
2026-05-04 07:57 52.11034 7.82538 30543 ft 408 kts 279°
2026-05-04 07:57 52.11606 7.78048 29900 ft 402 kts 279°
2026-05-04 07:57 52.12168 7.73629 29261 ft 396 kts 279°
2026-05-04 07:57 52.12722 7.69260 28588 ft 392 kts 279°
2026-05-04 07:58 52.13270 7.64930 27889 ft 389 kts 279°
2026-05-04 07:58 52.13810 7.60638 27187 ft 386 kts 279°
2026-05-04 07:58 52.14347 7.56370 26488 ft 383 kts 279°
2026-05-04 07:58 52.14877 7.52141 25797 ft 380 kts 279°
2026-05-04 07:59 52.15402 7.47931 25104 ft 378 kts 279°
2026-05-04 07:59 52.15922 7.43753 24423 ft 375 kts 279°
2026-05-04 07:59 52.16437 7.39605 23751 ft 372 kts 279°
2026-05-04 07:59 52.16946 7.35493 23084 ft 369 kts 279°
2026-05-04 08:00 52.17451 7.31409 22430 ft 366 kts 279°
2026-05-04 08:00 52.17949 7.27355 21791 ft 363 kts 279°
2026-05-04 08:00 52.18441 7.23341 21156 ft 359 kts 279°
2026-05-04 08:02 52.22387 6.96225 19864 ft 364 kts 298°
2026-05-04 08:02 52.23883 6.92915 19483 ft 367 kts 306°
2026-05-04 08:02 52.25519 6.89652 19102 ft 366 kts 307°
2026-05-04 08:03 52.27123 6.86508 18738 ft 363 kts 307°
2026-05-04 08:03 52.28723 6.83352 18374 ft 359 kts 307°
2026-05-04 08:03 52.30293 6.80208 18015 ft 355 kts 307°
2026-05-04 08:03 52.31838 6.77089 17657 ft 352 kts 306°
2026-05-04 08:04 52.33370 6.73996 17311 ft 348 kts 307°
2026-05-04 08:04 52.34889 6.70937 16947 ft 345 kts 307°
2026-05-04 08:04 52.36394 6.67911 16620 ft 341 kts 307°
2026-05-04 08:04 52.37885 6.64909 16279 ft 339 kts 307°
2026-05-04 08:05 52.39366 6.61922 15941 ft 337 kts 307°
2026-05-04 08:05 52.40842 6.58935 15605 ft 336 kts 306°
2026-05-04 08:05 52.42306 6.55967 15268 ft 334 kts 307°
2026-05-04 08:05 52.43763 6.53013 14934 ft 333 kts 307°
2026-05-04 08:06 52.45215 6.50064 14598 ft 331 kts 306°
2026-05-04 08:06 52.46401 6.46859 14267 ft 326 kts 291°
2026-05-04 08:06 52.47020 6.43320 13945 ft 322 kts 276°
2026-05-04 08:06 52.47241 6.39735 13638 ft 320 kts 273°
2026-05-04 08:08 52.48465 6.14565 11415 ft 312 kts 273°
2026-05-04 08:08 52.48634 6.11023 11104 ft 311 kts 273°
2026-05-04 08:10 52.49882 5.84564 9314 ft 270 kts 273°
2026-05-04 08:11 52.50022 5.81507 9059 ft 268 kts 273°
2026-05-04 08:11 52.50298 5.75429 8544 ft 266 kts 273°
2026-05-04 08:11 52.50435 5.72415 8301 ft 264 kts 273°
2026-05-04 08:12 52.50570 5.69413 8047 ft 263 kts 273°
2026-05-04 08:12 52.50701 5.66417 7799 ft 262 kts 273°
2026-05-04 08:12 52.50832 5.63437 7551 ft 261 kts 273°
2026-05-04 08:12 52.50964 5.60465 7302 ft 260 kts 273°
2026-05-04 08:13 52.51092 5.57547 7057 ft 259 kts 272°
2026-05-04 08:13 52.51064 5.54611 6874 ft 256 kts 267°
2026-05-04 08:13 52.50990 5.51691 6720 ft 256 kts 267°
2026-05-04 08:13 52.50908 5.48766 6582 ft 257 kts 266°
2026-05-04 08:14 52.50825 5.45829 6432 ft 258 kts 266°
2026-05-04 08:14 52.50743 5.42887 6278 ft 257 kts 267°
2026-05-04 08:14 52.50663 5.39968 6125 ft 256 kts 267°
2026-05-04 08:16 52.50083 5.19708 5072 ft 252 kts 266°
2026-05-04 08:16 52.49998 5.16840 4924 ft 252 kts 266°
2026-05-04 08:16 52.49913 5.13971 4778 ft 251 kts 266°
2026-05-04 08:17 52.49827 5.11110 4624 ft 250 kts 266°
2026-05-04 08:17 52.49743 5.08340 4487 ft 234 kts 266°
2026-05-04 08:17 52.49665 5.05788 4356 ft 213 kts 266°
2026-05-04 08:17 52.49594 5.03461 4206 ft 196 kts 266°
2026-05-04 08:19 52.49167 4.89929 3552 ft 163 kts 266°
2026-05-04 08:19 52.49106 4.88071 3401 ft 161 kts 266°
2026-05-04 08:20 52.49045 4.86222 3076 ft 162 kts 266°
2026-05-04 08:20 52.48985 4.84375 2762 ft 162 kts 266°
2026-05-04 08:20 52.48925 4.82529 2452 ft 162 kts 266°
2026-05-04 08:20 52.48865 4.80677 2144 ft 162 kts 266°
2026-05-04 08:21 52.48648 4.78878 2032 ft 161 kts 249°
2026-05-04 08:21 52.48094 4.77258 2011 ft 163 kts 231°
2026-05-04 08:21 52.47280 4.76037 2006 ft 162 kts 213°
2026-05-04 08:21 52.46251 4.75295 2006 ft 162 kts 193°
2026-05-04 08:22 52.45114 4.75100 2018 ft 163 kts 183°
2026-05-04 08:22 52.44011 4.75003 2011 ft 159 kts 184°
2026-05-04 08:24 52.36685 4.74329 684 ft 143 kts 183°
2026-05-04 08:24 52.35692 4.74238 492 ft 143 kts 183°
2026-05-04 08:24 52.34701 4.74147 309 ft 143 kts 183°
2026-05-04 08:24 52.33710 4.74056 134 ft 142 kts 182°
2026-05-04 08:25 52.32740 4.73974 13 ft 136 kts 184°
2026-05-04 08:25 52.32011 4.73906 -2 ft 59 kts 184°
2026-05-04 08:25 52.31795 4.73903 -2 ft 22 kts 168°
2026-05-04 08:25 52.31665 4.73987 -2 ft 17 kts 153°
2026-05-04 08:26 52.31579 4.74059 -2 ft 13 kts 153°
2026-05-04 08:27 52.31409 4.74937 -2 ft 19 kts 88°
2026-05-04 08:28 52.31416 4.75156 -2 ft 19 kts 87°
2026-05-04 08:28 52.31423 4.75370 -2 ft 19 kts 86°
2026-05-04 08:28 52.31431 4.75587 -2 ft 20 kts 86°
2026-05-04 08:28 52.31440 4.75812 -2 ft 19 kts 86°
2026-05-04 08:29 52.31448 4.76029 -2 ft 18 kts 86°
2026-05-04 08:29 52.31456 4.76243 -2 ft 19 kts 86°
2026-05-04 08:29 52.31463 4.76452 -2 ft 18 kts 86°
2026-05-04 08:31 52.31193 4.77500 -2 ft 17 kts 182°
2026-05-04 08:33 52.30895 4.77366 -2 ft 0 kts